Location: Vibo Valentia
(38.6670°N, 16.1000°E)
Time: 10:46:06
(UTC+02:00)

STARLINK-1353 - Pass Details

Date: 04 October 2020
Orbit: 530 x 533 km, 53.0° (Epoch: 22 October)

Event Time Altitude Azimuth Distance (km) Brightness Sun altitude
Exits shadow 05:16:57 12° 336° (NNW) 1,683 5.9 -19.8°
Maximum altitude 05:17:47 12° 349° (NNW) 1,649 6.0 -19.6°
Drops below altitude 10° 05:19:27 10° 13° (NNE) 1,786 6.5 -19.3°
Sets 05:22:58 0° 45° (NE) 2,679 8.0 -18.6°
